Change the Weather History Date:

Friday, October 19, 2012

  Actual Average (KINT) Record (KINT)
Temperature  
Mean Temperature 60 °F -  
Max Temperature 69 °F 66 °F 85 °F (1984)
Min Temperature 50 °F 46 °F 29 °F (1976)
Degree Days  
Heating Degree Days 6    
Growing Degree Days 10 (Base 50)    
Moisture  
Dew Point 47 °F    
Average Humidity 71    
Maximum Humidity 100    
Minimum Humidity 30    
Precipitation  
Precipitation 0.00 in - - ()
Sea Level Pressure  
Sea Level Pressure 29.76 in    
Wind  
Wind Speed 1 mph (SW)    
Max Wind Speed 13 mph    
Max Gust Speed 17 mph    
Visibility 6 miles    
Events Fog    
Averages and records for this station are not official NWS values.
T = Trace of Precipitation, MM = Missing Value Source: NWS Daily Summary

Daily Weather History Graph

Daily Weather History Graph

Search for Another Location

Airport or City:

Trip Planner

Search our weather history database for the weather conditions in past years. The results will help you decide how hot, cold, wet, or windy it might be!

Date:

Astronomy

Oct. 19, 2012 Rise Set
Actual Time 7:31 AM EDT 6:39 PM EDT
Civil Twilight 7:05 AM EDT 7:05 PM EDT
Nautical Twilight 6:36 AM EDT 7:35 PM EDT
Astronomical Twilight 6:06 AM EDT 8:05 PM EDT
Moon 12:06 PM EDT (10/19) 10:22 PM EDT (10/19)
Length of Visible Light 11h 59m
Length of Day
11h 08m
Waxing Crescent, 23% of the Moon is Illuminated
Oct 19
Waxing Crescent
Oct 21
First Quarter
Oct 29
Full
Nov 6
Last Quarter
Nov 13
New

Hourly Weather History & Observations

Time (EDT) Temp. Dew Point Humidity Pressure Visibility Wind Dir Wind Speed Gust Speed Precip Events Conditions
2:15 AM 55.4 °F 55.4 °F 100% 29.77 in 0.2 mi Calm Calm - N/A Fog Fog
2:35 AM 55.4 °F 55.4 °F 100% 29.76 in 0.2 mi Calm Calm - N/A Fog Fog
2:55 AM 55.4 °F 55.4 °F 100% 29.76 in 0.5 mi Calm Calm - N/A Fog Fog
3:15 AM 55.4 °F 55.4 °F 100% 29.76 in 0.8 mi Calm Calm - N/A   Mist
3:35 AM 55.4 °F 55.4 °F 100% 29.76 in 0.8 mi Calm Calm - N/A   Mist
3:55 AM 55.4 °F 55.4 °F 100% 29.75 in 0.8 mi Calm Calm - N/A   Mist
4:15 AM 55.4 °F 55.4 °F 100% 29.74 in 0.5 mi Calm Calm - N/A Fog Fog
4:55 AM 55.4 °F 55.4 °F 100% 29.75 in 0.5 mi Calm Calm - N/A Fog Fog
5:15 AM 55.4 °F 55.4 °F 100% 29.76 in 1.2 mi Calm Calm - N/A   Mist
5:55 AM 55.4 °F 55.4 °F 100% 29.77 in 7.0 mi Calm Calm - N/A   Unknown
6:15 AM 53.6 °F 53.6 °F 100% 29.77 in 3.0 mi Calm Calm - N/A   Mist
6:35 AM 53.6 °F 53.6 °F 100% 29.78 in 1.0 mi Calm Calm - N/A   Mist
6:55 AM 53.6 °F 53.6 °F 100% 29.78 in 1.2 mi Calm Calm - N/A   Mist
7:15 AM 53.6 °F 53.6 °F 100% 29.78 in 2.5 mi Calm Calm - N/A   Mist
7:35 AM 53.6 °F 53.6 °F 100% 29.78 in 1.8 mi Calm Calm - N/A   Mist
7:55 AM 53.6 °F 53.6 °F 100% 29.78 in 1.8 mi Calm Calm - N/A   Mist
8:15 AM 55.4 °F 55.4 °F 100% 29.78 in 1.0 mi Calm Calm - N/A   Mist
8:35 AM 53.6 °F 53.6 °F 100% 29.79 in 1.0 mi Calm Calm - N/A   Mist
8:55 AM 53.6 °F 53.6 °F 100% 29.79 in 0.2 mi Calm Calm - N/A Fog Fog
9:15 AM 53.6 °F 53.6 °F 100% 29.79 in 1.0 mi Calm Calm - N/A   Mist
9:55 AM 55.4 °F 55.4 °F 100% 29.79 in 0.5 mi Calm Calm - N/A Fog Fog
10:15 AM 57.2 °F 57.2 °F 100% 29.79 in 1.5 mi Calm Calm - N/A   Mist
10:35 AM 57.2 °F 57.2 °F 100% 29.79 in 5.0 mi Calm Calm - N/A   Mist
10:55 AM 59.0 °F 59.0 °F 100% 29.79 in 7.0 mi Calm Calm - N/A   Unknown
11:15 AM 62.6 °F 53.6 °F 72% 29.79 in 10.0 mi Calm Calm - N/A   Unknown
11:35 AM 62.6 °F 53.6 °F 72% 29.78 in 10.0 mi Calm Calm - N/A   Unknown
11:55 AM 64.4 °F 48.2 °F 56% 29.78 in 10.0 mi Calm Calm - N/A   Unknown
12:15 PM 66.2 °F 50.0 °F 56% 29.78 in 10.0 mi Calm Calm - N/A   Unknown
12:35 PM 64.4 °F 51.8 °F 64% 29.76 in 10.0 mi Calm Calm - N/A   Unknown
12:55 PM 68.0 °F 44.6 °F 43% 29.76 in 10.0 mi SSW 4.6 mph - N/A   Unknown
1:35 PM 68.0 °F 46.4 °F 46% 29.74 in 10.0 mi SSW 5.8 mph - N/A   Unknown
1:55 PM 69.8 °F 44.6 °F 40% 29.74 in 10.0 mi SW 5.8 mph - N/A   Unknown
2:15 PM 69.8 °F 41.0 °F 35% 29.73 in 10.0 mi SSW 12.7 mph 17.3 mph N/A   Unknown
2:35 PM 69.8 °F 41.0 °F 35% 29.73 in 10.0 mi SSW 9.2 mph - N/A   Unknown
3:15 PM 69.8 °F 41.0 °F 35% 29.72 in 10.0 mi Calm Calm - N/A   Unknown
3:35 PM 69.8 °F 39.2 °F 33% 29.71 in 10.0 mi SSW 6.9 mph - N/A   Unknown
3:55 PM 69.8 °F 41.0 °F 35% 29.71 in 10.0 mi WSW 5.8 mph - N/A   Unknown
4:15 PM 68.0 °F 39.2 °F 35% 29.71 in 10.0 mi SSW 6.9 mph - N/A   Unknown
5:15 PM 68.0 °F 35.6 °F 30% 29.71 in 10.0 mi SW 5.8 mph - N/A   Unknown
5:35 PM 66.2 °F 33.8 °F 30% 29.71 in 10.0 mi SW 6.9 mph - N/A   Unknown
5:55 PM 64.4 °F 33.8 °F 32% 29.71 in 10.0 mi SW 4.6 mph - N/A   Unknown
6:15 PM 62.6 °F 35.6 °F 37% 29.72 in 10.0 mi SW 4.6 mph - N/A   Unknown
6:55 PM 60.8 °F 35.6 °F 39% 29.73 in 10.0 mi Calm Calm - N/A   Unknown
7:15 PM 60.8 °F 35.6 °F 39% 29.73 in 10.0 mi SW 3.5 mph - N/A   Unknown
7:55 PM 59.0 °F 35.6 °F 42% 29.74 in 10.0 mi Calm Calm - N/A   Unknown
8:15 PM 55.4 °F 35.6 °F 47% 29.75 in 10.0 mi Calm Calm - N/A   Unknown
8:55 PM 55.4 °F 35.6 °F 47% 29.75 in 10.0 mi South 3.5 mph - N/A   Unknown
9:15 PM 53.6 °F 37.4 °F 54% 29.76 in 10.0 mi Calm Calm - N/A   Unknown
9:35 PM 51.8 °F 37.4 °F 58% 29.76 in 10.0 mi Calm Calm - N/A   Unknown
10:15 PM 51.8 °F 37.4 °F 58% 29.77 in 10.0 mi Calm Calm - N/A   Unknown
10:35 PM 51.8 °F 39.2 °F 62% 29.78 in 10.0 mi Calm Calm - N/A   Unknown
10:55 PM 50.0 °F 39.2 °F 66% 29.77 in 10.0 mi SSW 3.5 mph - N/A   Unknown
11:15 PM 51.8 °F 39.2 °F 62% 29.78 in 10.0 mi Calm Calm - N/A   Unknown
11:55 PM 50.0 °F 41.0 °F 71% 29.78 in 10.0 mi Calm Calm - N/A   Unknown